Lid_Strength_Index
-0 0 3 4 10 10 13 12 9 10 9 6 6 8 9 8 8 11 4 1 1 1 0 -0 -1 -1 -1 -2 -2 -2 -2 -2 -2 -2 -2 -2 -2 -2 -2 -2 -2 -2 -2 -1 -1 -1 -1 -1 -1
4 3 4 6 12 15 14 11 11 9 8 6 7 8 7 7 5 4 3 1 1 0 0 0 -1 -1 -1 -1 -2 -1 -2 -2 -2 -2 -2 -2 -2 -2 -2 -2 -2 -2 -1 -1 -1 -1 -1 -1 -1
3 4 7 9 11 14 13 11 10 8 6 6 7 7 6 6 3 4 2 1 2 1 0 0 -1 -1 -1 -1 -1 -1 -2 -2 -2 -2 -2 -2 -2 -2 -2 -2 -2 -2 -2 -1 -1 -1 -1 -1 -1
4 6 7 11 13 10 11 9 8 7 6 6 6 7 6 3 2 3 1 1 2 1 0 -0 -1 -1 -1 -1 -1 -1 -1 -2 -2 -2 -2 -2 -2 -2 -2 -2 -2 -2 -2 -1 -1 -1 -1 -1 -1
5 7 11 12 11 9 8 7 8 8 6 6 6 7 7 4 2 1 1 1 2 1 0 -0 -1 -1 -1 -1 -1 -1 -1 -1 -1 -2 -2 -2 -2 -2 -2 -2 -1 -1 -1 -1 -1 -1 -1 -1 -1
8 8 13 13 11 8 9 8 8 7 6 5 8 7 6 3 2 2 1 1 1 1 0 0 -1 -1 -1 -1 -1 -1 -1 -1 -1 -1 -1 -2 -2 -2 -1 -1 -1 -1 -1 -1 -1 -1 -1 -1 -1
9 11 13 11 10 9 9 8 8 8 7 7 6 8 7 5 2 1 1 1 1 1 1 0 0 -0 -1 -1 -1 -1 -1 -1 -1 -1 -1 -1 -1 -1 -1 -1 -1 -1 -1 -1 -1 -1 -1 -1 -1
7 9 12 11 11 10 8 8 8 7 7 5 4 8 9 5 4 2 2 2 2 1 1 1 0 0 0 -0 -1 -1 -1 -1 -1 -1 -1 -1 -1 -1 -1 -1 -1 -1 -1 -1 -1 -1 -1 -1 -1
6 11 13 11 10 9 8 10 7 5 6 6 5 6 5 4 4 4 6 6 3 1 1 1 0 0 0 0 -0 -1 -1 -1 -1 -1 -1 -1 -0 0 -0 -1 -1 -1 -1 -1 -1 -1 -1 -1 -1
8 12 11 8 8 9 8 8 8 7 7 7 6 4 4 4 5 5 6 5 5 2 2 1 1 1 0 0 0 0 -0 -0 -0 -0 0 -0 0 0 -0 -1 -1 -1 -1 -1 -1 -1 -1 -1 1
8 11 8 8 6 6 7 7 6 8 9 7 7 6 5 5 5 5 4 5 4 3 2 1 1 0 1 1 0 0 -0 -0 -0 0 0 0 0 0 0 1 0 1 -1 0 -0 0 0 1 1
10 7 7 6 5 6 7 6 7 7 8 6 5 5 5 5 6 5 5 5 6 6 2 1 1 1 1 0 0 0 0 0 0 0 0 0 0 0 0 0 0 1 0 0 1 1 1 1 1
9 8 6 6 6 6 6 7 7 7 6 5 5 5 5 5 5 6 5 5 5 7 5 2 1 1 1 1 1 1 1 0 0 0 -0 -0 0 1 0 1 0 2 2 1 2 2 2 1 1
11 9 8 8 8 8 8 8 7 7 5 5 5 5 5 6 5 6 6 6 6 5 6 4 1 1 1 1 1 1 0 0 0 0 -0 0 0 0 0 1 1 3 2 2 2 2 2 2 2
10 12 10 10 10 10 8 10 10 7 5 5 5 5 6 6 6 6 5 6 5 5 5 5 1 1 1 1 1 1 1 1 1 0 0 0 0 1 1 1 2 3 2 2 2 1 2 3 2
12 13 14 10 9 9 8 13 8 7 6 7 6 6 6 5 5 5 5 5 5 5 5 5 2 1 2 1 1 1 1 1 1 1 1 0 1 1 2 2 3 2 2 3 3 2 2 3 3
14 15 14 12 9 9 9 11 8 6 7 7 7 7 6 6 5 5 5 4 4 5 5 5 4 2 1 2 2 2 1 1 1 2 1 0 1 2 2 2 3 2 3 3 3 3 3 4 4
16 15 13 13 11 9 10 11 8 8 8 8 7 7 6 6 5 5 4 4 5 5 5 5 3 2 2 3 3 3 3 3 3 2 1 1 2 2 2 3 3 2 3 3 3 3 3 3 3
12 12 13 11 10 10 11 11 10 9 9 8 7 7 6 6 6 5 4 4 5 5 5 4 2 2 2 2 3 4 4 5 4 3 2 3 2 2 3 3 2 3 3 3 3 3 3 4 4
13 14 14 11 10 11 11 11 10 9 9 8 8 8 7 7 6 5 6 6 4 4 3 3 2 2 2 3 4 4 5 5 5 4 4 2 1 2 2 2 3 3 3 3 3 3 4 4 4
14 14 14 13 11 11 12 13 12 10 9 8 7 7 7 7 7 6 6 5 4 3 3 3 2 3 3 4 4 4 5 5 5 4 4 3 2 1 1 2 3 3 3 3 3 3 4 4 4
16 12 12 12 14 16 12 17 13 11 11 10 9 8 8 7 6 6 5 6 4 4 3 3 3 3 3 3 4 4 5 6 5 4 4 3 2 2 2 2 2 2 3 3 3 2 3 4 5
14 12 12 12 14 15 14 17 15 12 12 11 10 9 8 7 7 6 6 5 4 3 3 3 3 4 4 4 4 5 6 6 5 4 3 3 3 2 2 2 2 3 3 3 3 3 3 4 4
11 13 13 13 15 18 15 16 16 13 12 11 9 9 8 7 7 7 6 4 4 3 4 4 4 5 5 4 5 5 5 5 4 4 4 4 4 3 2 2 3 3 3 3 3 3 3 4 4
14 17 19 20 19 19 14 15 15 12 11 10 10 9 8 7 8 5 6 5 4 4 4 4 4 5 5 5 5 4 4 4 4 4 4 4 4 4 3 3 3 3 3 2 3 3 3 3 3
15 16 19 21 20 19 14 17 15 10 9 9 8 9 8 8 8 6 5 5 4 4 4 4 5 5 4 4 4 4 4 4 4 4 4 4 4 4 3 3 3 3 2 2 2 3 3 2 2
13 17 14 18 17 19 17 14 12 10 10 10 9 10 10 10 7 6 5 5 4 4 4 4 4 4 4 4 3 4 4 4 4 3 3 3 3 2 3 3 3 3 2 2 3 3 3 2 2
11 11 17 19 20 21 18 17 16 13 11 10 10 10 10 9 6 6 5 5 4 4 4 4 4 4 4 4 4 3 3 3 3 3 3 3 3 2 3 2 2 2 2 2 3 3 2 2 2
12 13 14 16 17 21 21 18 13 12 11 11 11 11 9 7 7 6 5 4 4 4 3 3 4 4 4 4 4 4 4 3 3 3 3 3 3 3 2 2 3 3 2 3 3 3 2 2 2
11 12 13 16 19 17 19 18 11 11 11 12 12 10 8 7 6 6 5 5 4 4 4 3 3 3 4 4 3 3 3 3 3 3 3 3 3 2 2 2 2 2 2 2 3 2 2 2 2